Aeroporto :
LOGIN :

Iscrizione | Disclaimer

   EN    FR    IT 

 










Sommario :    VFR   VFR Marginale   IFR   IFR Intensivo   IFR Molto Intensivo
Visibilità : 
Base nubi : 
>= 8 km
>= 3000ft
5 / 8 km
1000 / 3000 ft
1500m / 5 km
500 / 1000 ft
800 / 1500m
200 / 500 ft
< 800m
< 200 ft
Simboli :   Temporali  Nebbia  Neve Forte  Precipitazioni Forti  Vento > 20 kt
SIGMETs :   Varie  Temporali  Ghiacco  Turbolenza  Onda orograficha  Ceneri Vulcaniche






- Altitudine del aeroporto : 106 ft
- Codice IATA : XDA


LFBY - Dax Seyresse

ULTIMO METAR :
  • 200430Z AUTO 29004KT 250V320 9999 // ////// 16/15 Q1021

METARs OBSOLETI :
  • 200400Z AUTO 26004KT 220V300 //// // ////// 16/15 Q1021
  • 200330Z AUTO 20009KT //// // ////// 15/15 Q1020
  • 200300Z AUTO 20007KT 9999 // ////// 15/15 Q1020
  • 200230Z AUTO 20006KT 170V230 9999 // ////// 15/15 Q1021
  • 200200Z AUTO 19006KT 9999 // ////// 16/15 Q1021

Previsioni scadute.



MetMap, La meteo Aeronautica in un colpo d'occhio ! - Copyright ORBIFLY Dicembre 2007 - Disclaimer

ORBIFLY MET'MAP TEAM :

Programmazione e sviluppo : Alexandra Zaïnal
Concezione : Baudouin d'Aumeries
Aiuto per la programmazione : Marc-Olivier Méhu
Supporto tecnico e logistico : Manuel Goepfert
Aiuto per la traduzione : Arnaldo La Scala

Contatto : metmap@orbifly.com




FONTI E CREDITI :

   NOAA